sat.trackr.live / text

‹ back to catalog

STARLINK-36850

NORAD 68119 · 2026-044U

PAYLOAD ACTIVE UNKNOWN

§ Identity

Operator
Country
US
Launch date
2026-03-08
Launch site
AFWTR
Launch vehicle
Mass (kg)
RCS (m²)

Purposes: comms

External: N2YO · Heavens-Above · Gunter

§ Orbital elements

Epoch: 2026-09-20T04:44:03.174144Z

Period
93.91 min
Inclination
97.2859°
Eccentricity
0.0002281
Mean motion
15.33464486 rev/d
Perigee alt
463.9 km
Apogee alt
467.0 km
Semi-major
6,843.6 km
B*
7.9994e-4
RAAN
222.1878°
Arg perigee
91.4052°
Mean anomaly
268.7452°
Rev number
3,139

§ Raw data

STARLINK-368501 68119U 26044U   26263.19725896  .00025856  00000+0  79994-3 0  99932 68119  97.2859 222.1878 0002281  91.4052 268.7452 15.33464486 31395

JSON: /api/v1/satellites/68119 · /tle

For live sub-satellite position, see the globe view (requires WebGL).

§ Visibility from observer

Set your observer location to see the next 7 days of passes ≥ 10°. The values pass through the URL so the page stays shareable.

No JS? Fill the form by hand. The geolocation button needs JavaScript.